Location: Wolf Lake
(46.8518°N, 80.6381°W)
Time: 03:09:39
(UTC-05:00)

Envisat - Visible Passes

Search period start: 23 February 2024 00:00
Search period end: 04 March 2024 00:00
Orbit: 762 x 764 km, 98.3° (Epoch: 22 February)

Date Brightness Start Highest point End Pass type
(mag) Time Alt. Az. Time Alt. Az. Time Alt. Az.
23 Feb 5.5 03:08:16 10° NNE 03:09:36 17° NE 03:09:36 17° NE visible
23 Feb 4.3 04:47:10 10° N 04:49:46 26° NNW 04:49:46 26° NNW visible
24 Feb 4.4 04:09:35 10° N 04:12:10 30° N 04:12:10 30° N visible
24 Feb 4.9 05:50:45 10° NNW 05:52:21 12° NW 05:52:21 12° NW visible
25 Feb 4.9 03:32:22 10° NNE 03:34:34 25° NE 03:34:34 25° NE visible
25 Feb 4.4 05:12:00 10° N 05:14:44 22° NW 05:14:44 22° NW visible
26 Feb 5.6 02:55:39 10° NE 02:56:58 16° NE 02:56:58 16° NE visible
26 Feb 4.1 04:34:08 10° N 04:37:09 32° NNW 04:37:09 32° NNW visible
27 Feb 4.3 03:56:40 10° NNE 03:59:33 35° NNE 03:59:33 35° NNE visible
27 Feb 4.7 05:37:09 10° NNW 05:39:44 15° NW 05:39:44 15° NW visible
28 Feb 5.0 03:19:36 10° NNE 03:21:58 25° NE 03:21:58 25° NE visible
28 Feb 4.1 04:58:52 10° N 05:02:08 27° NW 05:02:08 27° NW visible
29 Feb 5.7 02:43:08 10° NE 02:44:22 14° ENE 02:44:22 14° ENE visible
29 Feb 3.8 04:21:09 10° N 04:24:32 40° NNW 04:24:32 40° NNW visible
01 Mar 4.2 03:43:48 10° NNE 03:46:57 37° NNE 03:46:57 37° NNE visible
01 Mar 4.4 05:23:49 10° NNW 05:27:07 19° NW 05:27:07 19° NW visible
02 Mar 5.1 03:06:53 10° NNE 03:09:21 23° NE 03:09:21 23° NE visible
02 Mar 3.8 04:45:46 10° N 04:49:32 34° NW 04:49:32 34° NW visible
03 Mar 5.8 02:30:50 10° NE 02:31:45 12° ENE 02:31:45 12° ENE visible
03 Mar 3.6 04:08:11 10° N 04:11:56 49° N 04:11:56 49° N visible
03 Mar 4.8 05:49:18 10° NNW 05:51:24 13° NW 05:52:06 12° WNW visible
